TimeCDT,TemperatureF,Dew PointF,Humidity,Sea Level PressureIn,VisibilityMPH,Wind Direction,Wind SpeedMPH,Gust SpeedMPH,PrecipitationIn,Events,Conditions,WindDirDegrees,DateUTC
12:53 AM,66.0,62.1,87,29.95,10.0,SW,5.8,-,N/A,,Clear,230,2012-08-19 05:53:00
1:53 AM,66.9,62.1,84,29.95,10.0,WSW,9.2,-,N/A,,Clear,250,2012-08-19 06:53:00
2:53 AM,66.9,63.0,87,29.94,10.0,West,8.1,-,N/A,,Clear,270,2012-08-19 07:53:00
3:53 AM,64.9,62.1,90,29.95,10.0,NNW,5.8,-,N/A,,Clear,340,2012-08-19 08:53:00
4:53 AM,66.0,62.1,87,29.95,10.0,NW,8.1,-,N/A,,Clear,320,2012-08-19 09:53:00
5:53 AM,64.9,61.0,87,29.95,10.0,NNW,8.1,-,N/A,,Clear,340,2012-08-19 10:53:00
6:53 AM,64.0,59.0,84,29.96,10.0,NNW,10.4,-,N/A,,Clear,340,2012-08-19 11:53:00
7:53 AM,66.0,55.9,70,29.99,10.0,NNW,10.4,-,N/A,,Clear,340,2012-08-19 12:53:00
8:53 AM,71.1,51.1,49,30.00,10.0,NNW,12.7,20.7,N/A,,Clear,340,2012-08-19 13:53:00
9:53 AM,75.9,46.9,36,30.01,10.0,North,17.3,25.3,N/A,,Clear,10,2012-08-19 14:53:00
10:53 AM,80.1,45.0,29,30.02,10.0,North,18.4,-,N/A,,Clear,360,2012-08-19 15:53:00
11:53 AM,82.9,43.0,24,30.02,10.0,North,18.4,27.6,N/A,,Clear,10,2012-08-19 16:53:00
12:53 PM,84.9,42.1,22,30.01,10.0,NNE,20.7,27.6,N/A,,Clear,20,2012-08-19 17:53:00
1:53 PM,84.9,41.0,21,30.00,10.0,North,13.8,26.5,N/A,,Clear,10,2012-08-19 18:53:00
2:53 PM,87.1,41.0,20,29.98,10.0,North,15.0,23.0,N/A,,Clear,10,2012-08-19 19:53:00
3:53 PM,87.1,42.1,21,29.96,10.0,North,10.4,24.2,N/A,,Clear,360,2012-08-19 20:53:00
4:53 PM,86.0,42.1,21,29.95,10.0,North,16.1,21.9,N/A,,Partly Cloudy,10,2012-08-19 21:53:00
5:53 PM,84.0,43.0,24,29.95,10.0,North,12.7,-,N/A,,Mostly Cloudy,350,2012-08-19 22:53:00
6:53 PM,82.9,43.0,24,29.94,10.0,North,10.4,-,N/A,,Mostly Cloudy,10,2012-08-19 23:53:00
7:53 PM,79.0,44.1,29,29.95,10.0,North,8.1,-,N/A,,Mostly Cloudy,10,2012-08-20 00:53:00
8:53 PM,73.0,46.9,39,29.97,10.0,NNE,5.8,-,N/A,,Scattered Clouds,20,2012-08-20 01:53:00
9:53 PM,73.0,48.9,42,29.99,10.0,NE,6.9,-,N/A,,Overcast,40,2012-08-20 02:53:00
10:53 PM,75.0,45.0,34,29.99,10.0,NE,9.2,-,N/A,,Overcast,40,2012-08-20 03:53:00
11:53 PM,69.1,46.9,45,30.01,10.0,NNE,6.9,-,N/A,,Mostly Cloudy,30,2012-08-20 04:53:00